Current weather by "City, St" or "zip code"  
 

Current Conditions: Odessa, Odessa-Schlemeyer Field, TX

Fair


72.0 F

Last Updated on May 21 2022, 3:53 am CDT
Humidity: 13%
Wind Speed: S 9.2 mph
Barometer 29.77 in
Dewpoint: 19.0 F
Visibility: 10.00 mi
Precip: --
Heat Index: NA
Wind Chill: NA
Current conditions at:

Odessa, Odessa-Schlemeyer Field, TX (KODO)

Lat: 31.92139 Lon: 102.39167

Local Radar Image active severe weather and emergency alerts image image weather storm and storm spotter reports image weather observation monitoring service image
Local
Radar
Active
Alerts
Storm Reports Obs
Monitoring

Sign-up For Email & Text Message Weather Alert Notification Services



Advertise Here

Observation History for Odessa, Odessa-Schlemeyer Field, TX


Time Wind
(mph)
Vis
(mi)
Weather Precip (in) Temperature (F) Relative
Humidity
Wind
Chill
(F)
Heat
Index
(F)
Pressure
Air Dwpt altimeter
(in)
sea level
(mb)
Rmks
3:53 am CDT S 9.2 10.00 Fair -- 72.0 19.0 13% NA NA 29.77 1002.5
2:53 am CDT S 4.6 10.00 Fair -- 73.0 19.0 13% NA NA 29.76 1002.1
1:53 am CDT NW 6.9 10.00 Fair -- 73.0 21.0 14% NA NA 29.76 1002.1
12:53 am CDT S 5.8 10.00 Fair -- 78.0 21.9 12% NA NA 29.74 1001.3
11:53 pm CDT SW 8.1 10.00 Fair -- 80.0 21.9 11% NA 78 29.73 1001.0
10:53 pm CDT W 8.1 10.00 Fair -- 83.0 25.0 12% NA 80 29.71 1000.4
9:53 pm CDT S 4.6 10.00 Fair -- 87.0 25.0 10% NA 83 29.68 999.3
8:53 pm CDT SW 6.9 10.00 Fair -- 90.0 26.1 10% NA 86 29.65 998.5
7:53 pm CDT SW 15.0 10.00 Fair -- 94.0 28.0 9% NA 89 29.64 998.1
6:53 pm CDT SW 15.0 10.00 Fair -- 96.0 28.0 9% NA 91 29.63 998.0
4:53 pm CDT W 23.0 G 32.2 10.00 Fair and Breezy -- 97.0 28.0 9% NA 92 29.64 997.9
3:53 pm CDT W 21.9 G 33.4 10.00 Fair and Breezy -- 98.0 28.9 9% NA 93 29.65 998.3
2:53 pm CDT W 20.7 G 27.6 10.00 Fair and Breezy -- 98.0 27.0 8% NA 93 29.67 998.7
1:53 pm CDT W 18.4 G 25.3 10.00 Fair -- 97.0 26.1 8% NA 92 29.68 998.8
12:53 pm CDT W 18.4 G 28.8 10.00 Fair -- 95.0 24.1 8% NA 90 29.69 999.5
10:53 am CDT W 17.3 10.00 Fair -- 90.0 24.1 9% NA 86 29.69 999.5
9:53 am CDT W 16.1 10.00 Fair -- 85.0 28.0 13% NA 82 29.68 999.4
8:53 am CDT W 15.0 10.00 Fair -- 80.0 28.9 15% NA 78 29.67 998.9
7:53 am CDT SW 6.9 10.00 Fair -- 75.0 37.9 26% NA NA 29.66 998.7
6:53 am CDT SW 5.8 10.00 Fair -- 72.0 50.0 46% NA NA 29.64 997.9
5:53 am CDT SW 9.2 10.00 Fair -- 74.0 54.0 50% NA NA 29.63 997.4
4:53 am CDT SW 12.7 10.00 Fair -- 76.0 57.0 52% NA NA 29.62 996.9

Regional Weather Observation


Midland, Midland Airpark, TX (KMDD)

Fair
82.0 F

Odessa, Odessa-Schlemeyer Field, TX (KODO)

Fair
72.0 F

Midland, Midland International Airport, TX (KMAF)

Fair
78.0 F

Seminole, Gaines County Airport, TX (KGNC)

Fair
63.0 F

Wink, Winkler County Airport, TX (KINK)

Fair
73.0 F

Hobbs / Lea County, NM (KHOB)

Fair
68.0 F

Advertise Here


Advertise Here